Time,TemperatureF,DewpointF,PressureIn,WindDirection,WindDirectionDegrees,WindSpeedMPH,WindSpeedGustMPH,Humidity,HourlyPrecipIn,Conditions,Clouds,dailyrainin,SoftwareType,DateUTC
2013-05-26 17:22:00,75.0,57.0,30.30,SE,134,4.0,6.0,53,-99.99,,,-99.99,,2013-05-26 21:22:00,
2013-05-26 17:33:00,76.0,56.0,30.30,WNW,285,1.0,1.0,50,-99.99,,,-99.99,,2013-05-26 21:33:00,
2013-05-26 17:43:00,77.0,58.0,30.30,South,186,1.0,3.0,52,-99.99,,,-99.99,,2013-05-26 21:43:00,
2013-05-26 17:53:00,77.0,58.0,30.30,South,186,1.0,3.0,52,-99.99,,,-99.99,,2013-05-26 21:53:00,
2013-05-26 18:03:00,75.0,57.0,30.30,South,170,0.0,1.0,53,-99.99,,,-99.99,,2013-05-26 22:03:00,
2013-05-26 18:12:00,75.0,57.0,30.30,South,170,0.0,1.0,53,-99.99,,,-99.99,,2013-05-26 22:12:00,
2013-05-26 18:23:00,75.0,58.0,30.30,ENE,73,0.0,0.0,55,0.00,,,-99.99,,2013-05-26 22:23:00,
2013-05-26 18:33:00,74.0,56.0,30.29,SSE,166,5.0,7.0,54,0.00,,,-99.99,,2013-05-26 22:33:00,
2013-05-26 18:42:00,74.0,60.0,30.29,WSW,250,1.0,2.0,61,0.00,,,-99.99,,2013-05-26 22:42:00,
2013-05-26 18:53:00,74.0,60.0,30.29,WSW,250,1.0,2.0,61,0.00,,,-99.99,,2013-05-26 22:53:00,
2013-05-26 19:02:00,74.0,58.0,30.30,South,174,0.0,0.0,58,0.00,,,-99.99,,2013-05-26 23:02:00,
2013-05-26 19:12:00,74.0,58.0,30.30,South,174,0.0,0.0,58,0.00,,,-99.99,,2013-05-26 23:12:00,
2013-05-26 19:22:00,73.0,58.0,30.30,SSW,201,1.0,3.0,59,0.00,,,-99.99,,2013-05-26 23:22:00,
2013-05-26 19:32:00,73.0,59.0,30.30,West,266,0.0,0.0,61,0.00,,,-99.99,,2013-05-26 23:32:00,
2013-05-26 19:43:00,72.0,59.0,30.31,West,266,0.0,0.0,63,0.00,,,-99.99,,2013-05-26 23:43:00,
2013-05-26 19:52:00,72.0,59.0,30.31,West,266,0.0,0.0,63,0.00,,,-99.99,,2013-05-26 23:52:00,
2013-05-26 20:02:00,69.0,58.0,30.32,NNE,25,0.0,0.0,68,0.00,,,-99.99,,2013-05-27 00:02:00,
2013-05-26 20:11:00,69.0,58.0,30.32,NNE,25,0.0,0.0,68,0.00,,,-99.99,,2013-05-27 00:11:00,
2013-05-26 20:22:00,68.0,60.0,30.32,NE,56,0.0,0.0,75,0.00,,,-99.99,,2013-05-27 00:22:00,
2013-05-26 20:32:00,67.0,60.0,30.32,NNE,31,2.0,2.0,79,0.00,,,-99.99,,2013-05-27 00:32:00,
2013-05-26 20:42:00,65.0,59.0,30.32,NNE,27,0.0,0.0,82,0.00,,,-99.99,,2013-05-27 00:42:00,
2013-05-26 20:52:00,65.0,59.0,30.32,NNE,27,0.0,0.0,82,0.00,,,-99.99,,2013-05-27 00:52:00,
2013-05-26 21:01:00,64.0,59.0,30.32,NNE,27,0.0,0.0,84,0.00,,,-99.99,,2013-05-27 01:01:00,
2013-05-26 21:11:00,64.0,59.0,30.32,NNE,27,0.0,0.0,84,0.00,,,-99.99,,2013-05-27 01:11:00,
2013-05-26 21:22:00,63.0,59.0,30.33,North,4,2.0,2.0,87,0.00,,,-99.99,,2013-05-27 01:22:00,
2013-05-26 21:32:00,62.0,59.0,30.33,North,6,2.0,2.0,89,0.00,,,-99.99,,2013-05-27 01:32:00,
2013-05-26 21:42:00,62.0,58.0,30.33,West,260,0.0,0.0,88,0.00,,,-99.99,,2013-05-27 01:42:00,
2013-05-26 21:52:00,62.0,58.0,30.33,West,260,0.0,0.0,88,0.00,,,-99.99,,2013-05-27 01:52:00,
2013-05-26 22:02:00,61.0,58.0,30.34,West,260,0.0,0.0,90,0.00,,,-99.99,,2013-05-27 02:02:00,
2013-05-26 22:11:00,61.0,58.0,30.34,West,260,0.0,0.0,90,0.00,,,-99.99,,2013-05-27 02:11:00,
2013-05-26 22:22:00,60.0,58.0,30.35,SE,141,0.0,0.0,92,0.00,,,-99.99,,2013-05-27 02:22:00,
2013-05-26 22:32:00,59.0,58.0,30.35,SE,141,0.0,0.0,95,0.00,,,-99.99,,2013-05-27 02:32:00,
2013-05-26 22:42:00,59.0,58.0,30.35,SE,141,0.0,0.0,95,0.00,,,-99.99,,2013-05-27 02:42:00,
2013-05-26 22:52:00,59.0,58.0,30.35,SE,141,0.0,0.0,95,0.00,,,-99.99,,2013-05-27 02:52:00,
2013-05-26 23:02:00,59.0,58.0,30.36,SE,141,0.0,0.0,96,0.00,,,-99.99,,2013-05-27 03:02:00,
2013-05-26 23:11:00,59.0,58.0,30.36,SE,141,0.0,0.0,96,0.00,,,-99.99,,2013-05-27 03:11:00,
2013-05-26 23:21:00,58.0,57.0,30.36,ENE,66,0.0,0.0,96,0.00,,,-99.99,,2013-05-27 03:21:00,
2013-05-26 23:33:00,58.0,57.0,30.36,ENE,66,0.0,0.0,97,0.00,,,-99.99,,2013-05-27 03:33:00,
2013-05-26 23:43:00,57.0,56.0,30.36,NE,52,0.0,0.0,97,0.00,,,-99.99,,2013-05-27 03:43:00,
2013-05-26 23:53:00,57.0,56.0,30.36,NE,52,0.0,0.0,97,0.00,,,-99.99,,2013-05-27 03:53:00,